Regional & State Weather Roundups


143 
ASUS41 KLWX 211011
RWRLWX
REGIONAL WEATHER ROUNDUP
NATIONAL WEATHER SERVICE BALTIMORE MD/WASHINGTON DC
500 AM EST SAT JAN 21 2017
Note: "FAIR" indicates few or no clouds below 12,000 feet
with no significant weather and/or obstructions to visibility.
 TC=TEMPERATURE CELSIUS
 * =Non NWS site. Station does not report precipitation (e.g. rain,
    snow, etc.), thunder, or fog.
DCZ001-MDZ009-015-VAZ040>042-051-053>054-211100-
WASHINGTON METRO
  
CITY           SKY/WX    TMP DP  RH WIND       PRES   REMARKS
WASHINGTON NAT CLOUDY    48  47  96 SW5       29.91S FOG              
DULLES         CLOUDY    47  46  97 S5        29.90S FOG              
ANDREWS AFB    CLOUDY    46  46 100 W5        29.90R FOG              
FT BELVOIR     CLOUDY    47  46  96 S3        29.91R FOG              
QUANTICO       FOG       46  46 100 SW5       29.91F VSB 1/2          
COLLEGE PARK*  CLOUDY    45  45 100 CALM      29.90S                  
LEESBURG*      FOG       48  48 100 CALM      29.90F VSB 1            
GAITHERSBURG*  CLOUDY    46  43  87 CALM      29.92F VSB 1/2          
$$
MDZ006>007-011-014-211100-
BALTIMORE METRO
  
CITY           SKY/WX    TMP DP  RH WIND       PRES   REMARKS
BWI AIRPORT    FOG       46  46 100 CALM      29.90F VSB 1/2          
MD SCIENCE CTR   N/A     46  43  89 MISG      29.91F                  
ANNAPOLIS      FOG       43  41  93 SE5       29.91F VSB 1/4          
FORT MEADE*    CLOUDY    45  45 100 CALM      29.93S                  
$$
MDZ012-015-019>023-211100-
MARYLAND EASTERN SHORE
  
CITY           SKY/WX    TMP DP  RH WIND       PRES   REMARKS
OCEAN CITY     CLOUDY    46  46 100 CALM      29.93F FOG              
SALISBURY      CLOUDY    46  45  96 CALM      29.92F FOG              
BAY BRIDGE AP* CLOUDY    45  45 100 CALM      29.92S FOG              
CAMBRIDGE*     CLOUDY    45  45 100 CALM      29.91F                  
EASTON*        CLOUDY    47  45  95 CALM      29.95F FOG              
$$
MDZ017>025-211100-
SOUTHERN MARYLAND
  
CITY           SKY/WX    TMP DP  RH WIND       PRES   REMARKS
PATUXENT RIVER CLOUDY    46  46 100 S5        29.91F FOG              
ST INIGOES     CLOUDY    47  46  97 SE3       29.91F FOG              
LEONARDTOWN*   CLOUDY    45  45 100 CALM      29.92F                  
$$
MDZ003>005-211100-
NORTH CENTRAL MARYLAND
  
CITY           SKY/WX    TMP DP  RH WIND       PRES   REMARKS
FREDERICK*     FOG       45  45 100 CALM      29.92S VSB 1/2          
HAGERSTOWN APT FOG       42  40  92 CALM      29.88F VSB 1/4          
WESTMINSTER*   FOG       45  45 100 CALM      29.89S VSB 1/4          
$$
MDZ501>502-211100-
WESTERN MARYLAND
  
CITY           SKY/WX    TMP DP  RH WIND       PRES   REMARKS
OAKLAND*         N/A     45  45 100 S8        29.86R                  
CUMBERLAND*    CLOUDY    41  41 100 CALM      29.92S                  
$$
VAZ025>031-211100-
SHENANDOAH VALLEY
  
CITY           SKY/WX    TMP DP  RH WIND       PRES   REMARKS
WINCHESTER*    FOG       39  39 100 CALM      29.89S VSB 1/4          
FRONT ROYAL*   CLOUDY    37  37 100 CALM      29.88S VSB 1/4          
LURAY*         FOG       43  43 100 S3        29.88F VSB 1/4          
NEW MARKET*    CLOUDY    43  42  96 CALM      29.87F VSB 1/4          
STAUNTON*      FOG       45  45 100 S3        29.90S VSB 1/4          
WAYNESBORO*    CLOUDY    42  40  96 CALM      29.88S                  
$$
WVZ021-048>050-054>055-211100-
EASTERN WEST VIRGINIA PANHANDLE
  
CITY           SKY/WX    TMP DP  RH WIND       PRES   REMARKS
MARTINSBURG    FOG       42  41  96 CALM      29.89S VSB 1/4          
PETERSBURG*    FOG       37  37 100 CALM      29.89S VSB 1/4          
$$
VAZ036>039-050-211100-
CENTRAL FOOTHILLS
  
CITY           SKY/WX    TMP DP  RH WIND       PRES   REMARKS
CHARLOTTESVILL FOG       49  47  93 SW3       29.88F VSB 1/4          
CULPEPER*      CLOUDY    48  48 100 CALM      29.91S FOG              
ORANGE*          N/A     48  48 100 CALM      29.91F FOG              
GORDONSVILLE*  FOG       47  47 100 S3        29.89F VSB 1/2          
WARRENTON*     CLOUDY    48  46  91 CALM      29.89F FOG              
$$
VAZ055>057-211100-
NORTH AND CENTRAL PIEDMONT
  
CITY           SKY/WX    TMP DP  RH WIND       PRES   REMARKS
FREDERICKSBRG* CLOUDY    49  49 100 S3        29.90F FOG              
STAFFORD*      CLOUDY    47  47 100 CALM      29.94F FOG              
$$
NCZ024-NYZ072-PAZ021-071-VAZ022-071-211100-
OTHER REGIONAL OBSERVATIONS
  
CITY           SKY/WX    TMP DP  RH WIND       PRES   REMARKS
NEW YORK CITY  CLOUDY    41  41 100 SW8       29.91F FOG              
PHILADELPHIA   CLOUDY    42  41  96 CALM      29.92F FOG              
PITTSBURGH     PTCLDY    42  42 100 CALM      29.81S FOG              
ROANOKE        FOG       46  46 100 CALM      29.92S VSB 1/4          
RICHMOND       FOG       47  47 100 S3        29.91F VSB 1/2          
RALEIGH        FOG       51  51 100 NE3       29.91F VSB 1/8          
$$
ANZ530>537-211100-
MARINE OBSERVATIONS
  
STATION/POSITION TIME  TEMP    WIND        PRES
                       AIR SEA DIR/SP/G
                 (UTC) (F)     (DEG/KT/KT) (MB)
THOMAS PT LIGHT  1000   43 39  170/  6/  6   N/A
BALT KEY BRIDGE  0936   43     100/  3/  4 1013.0F
COVE POINT       0936   44     190/  5/  6 1013.5F
LEWISETTA        0936   47 44  260/  3/  3 1012.8F
SOLOMONS ISLAND  0936   46 42  200/  3/  4   N/A
PINEY POINT      0948          220/  4/  5   N/A
$$